Simultaneous Nadir Overpasses (SNOs) Predictions

Prediction of SNOs between AQUA and METOP-B Satellite Orbit:

Table of predicted SNOs for the next 14.0 days since TLE Epoch: 10/5/2019
Index Date (AQUA) Time (AQUA) Lat,Lon (AQUA) SZA (AQUA ) Date (METOP-B) Time (METOP-B) Lat,Lon (METOP-B) SZA (METOP-B ) Distance(km) Time Diff (sec)
1 10/07/2019 16:14:02 73.81, -69.26 79.31 10/07/2019 16:13:00 73.83, -69.26 79.33 1.55 62
2 10/07/2019 17:03:29 -73.87, 98.26 100.62 10/07/2019 17:03:41 -73.89, 98.21 100.61 2.27 12
3 10/07/2019 17:53:03 74.22, -94.91 79.76 10/07/2019 17:54:13 74.25, -93.56 79.77 40.92 70
4 10/10/2019 11:48:18 73.85, -2.90 80.41 10/10/2019 11:47:21 73.85, -2.80 80.42 3.21 57
5 10/10/2019 12:37:45 -73.90, 164.63 99.53 10/10/2019 12:38:02 -73.91, 164.68 99.51 2.03 17
6 10/10/2019 13:27:23 74.47, -29.04 81.08 10/10/2019 13:28:30 74.47, -26.59 81.05 73.19 67
7 10/13/2019 07:22:32 73.84, 63.56 81.46 10/13/2019 07:21:42 73.82, 63.54 81.45 1.96 50
8 10/13/2019 08:11:59 -73.88,-128.89 98.49 10/13/2019 08:12:23 -73.88,-128.98 98.48 2.78 24
9 10/16/2019 02:56:47 73.83, 130.01 82.50 10/16/2019 02:56:03 73.84, 130.00 82.51 0.94 44
10 10/16/2019 03:46:15 -73.92, -62.54 97.41 10/16/2019 03:46:44 -73.91, -62.52 97.42 1.65 29
11 10/18/2019 22:31:02 73.83,-163.56 83.53 10/18/2019 22:30:24 73.86,-163.55 83.55 2.98 38
12 10/18/2019 23:20:30 -73.91, 3.91 96.39 10/18/2019 23:21:05 -73.92, 3.93 96.37 1.52 35




NCC Satellite Simultaneous Nadir Overpasses (SNOs) Prediction Service
